Date,TemperatureHighF,TemperatureAvgF,TemperatureLowF,DewpointHighF,DewpointAvgF,DewpointLowF,HumidityHigh,HumidityAvg,HumidityLow,PressureMaxIn,PressureMinIn,WindSpeedMaxMPH,WindSpeedAvgMPH,GustSpeedMaxMPH,PrecipitationSumIn
2013-1-1,78.4,66.0,54.7,60.5,56.5,52.2,92,73,51,30.16,29.98,12,2,17,0.00
2013-1-2,80.6,68.7,58.5,65.9,60.9,55.8,91,77,55,30.01,29.92,9,2,12,0.00
2013-1-3,74.8,64.8,58.1,65.8,61.1,54.8,95,88,73,30.12,29.97,13,3,17,0.07
2013-1-4,58.6,56.9,54.2,57.2,55.1,52.3,95,94,92,30.21,30.08,13,4,15,0.21
2013-1-5,75.2,62.5,54.0,62.4,56.0,50.5,94,80,62,30.23,30.12,10,4,14,0.01
2013-1-6,80.1,68.0,60.2,67.2,62.4,57.7,94,83,65,30.15,29.99,9,3,17,0.09
2013-1-7,69.6,62.7,56.1,60.9,57.1,50.7,93,82,62,30.16,30.06,10,6,15,0.00
2013-1-8,84.4,71.2,63.0,69.7,65.6,60.3,94,83,59,30.17,30.06,8,3,9,0.00
2013-1-9,82.3,72.7,67.0,72.5,68.3,65.5,95,87,68,30.25,30.13,9,3,13,0.07
2013-1-10,82.6,72.5,66.4,69.7,65.5,62.1,96,80,53,30.25,30.16,10,4,15,0.01
2013-1-11,81.9,71.6,62.9,69.2,64.3,60.8,94,79,54,30.20,30.09,9,3,15,0.00
2013-1-12,84.8,71.5,63.0,68.6,63.3,60.7,94,77,46,30.14,30.02,8,3,10,0.00
2013-1-13,83.0,71.1,61.7,66.7,62.9,59.2,94,77,47,30.10,30.00,8,3,13,0.00
2013-1-14,82.7,70.6,61.6,67.8,63.2,59.7,94,79,54,30.13,30.05,10,3,12,0.00
2013-1-15,83.2,71.7,63.3,67.5,64.0,60.6,94,78,51,30.09,29.99,9,3,12,0.00
2013-1-16,84.7,72.2,62.7,65.5,61.6,57.7,93,72,44,30.04,29.94,8,2,9,0.00
2013-1-17,79.3,64.7,52.9,67.9,58.0,43.9,93,79,62,30.03,29.89,17,6,25,0.00
2013-1-18,65.5,54.0,41.3,58.2,46.2,33.7,90,75,68,30.21,30.03,15,6,21,0.04
2013-1-19,73.4,64.0,55.8,60.2,56.4,51.1,86,77,61,30.21,30.07,13,5,19,0.00
2013-1-20,72.8,63.6,59.2,62.5,57.8,53.1,94,82,66,30.11,29.99,10,4,14,0.01
2013-1-21,75.8,65.4,61.5,61.0,56.8,54.4,82,74,58,30.03,29.93,5,2,10,0.00
2013-1-22,62.6,58.0,48.6,54.2,43.5,36.5,78,59,42,30.21,29.99,13,4,17,0.00
2013-1-23,71.3,56.5,47.5,43.4,38.5,32.7,78,54,27,30.30,30.20,9,2,13,0.00
2013-1-24,74.6,59.9,46.2,52.5,46.1,40.7,84,63,39,30.25,30.14,9,2,13,0.00
2013-1-25,77.2,63.6,52.6,57.0,51.1,45.1,95,67,38,30.23,30.10,8,2,10,0.00
2013-1-26,78.5,63.5,50.9,57.1,51.9,45.5,92,68,43,30.20,30.09,6,2,10,0.00
2013-1-27,80.4,66.1,54.5,62.3,57.6,52.2,94,76,45,30.24,30.16,10,3,13,0.00
2013-1-28,77.2,69.8,63.0,64.1,62.2,59.7,90,78,60,30.27,30.17,10,4,14,0.00
2013-1-29,84.2,71.6,63.3,68.1,64.2,61.6,94,79,48,30.19,30.04,10,4,13,0.00
2013-1-30,83.8,73.7,64.8,65.5,63.6,61.3,92,72,50,30.06,29.81,18,7,23,0.00
2013-1-31,70.8,59.2,49.6,64.9,41.7,26.9,91,56,25,30.15,29.82,16,5,21,0.07